Weather History for KCKN - October, 2013

Change the Weather History Date:

Saturday, October 19, 2013

  Actual Average Record
Temperature  
Mean Temperature 36 °F -  
Max Temperature 41 °F 49 °F 73 °F (2000)
Min Temperature 30 °F 31 °F 24 °F (2002)
Degree Days  
Heating Degree Days 30    
Moisture  
Dew Point 33 °F    
Average Humidity 92    
Maximum Humidity 100    
Minimum Humidity 70    
Precipitation  
Precipitation 0.00 in - - ()
Sea Level Pressure  
Sea Level Pressure 29.74 in    
Wind  
Wind Speed 7 mph (WNW)    
Max Wind Speed 14 mph    
Max Gust Speed 17 mph    
Visibility 9 miles    
Events      
Averages and records for this station are not official NWS values.
T = Trace of Precipitation, MM = Missing Value Source: NWS Daily Summary

Daily Weather History Graph

Daily Weather History Graph

Search for Another Location

Airport or City:

Trip Planner

Search our weather history database for the weather conditions in past years. The results will help you decide how hot, cold, wet, or windy it might be!

Date:

Astronomy

Oct. 19, 2013 Rise Set
Actual Time 7:51 AM CDT 6:30 PM CDT
Civil Twilight 7:20 AM CDT 7:01 PM CDT
Nautical Twilight 6:44 AM CDT 7:37 PM CDT
Astronomical Twilight 6:08 AM CDT 8:13 PM CDT
Moon 6:53 PM CDT (10/19) 8:35 AM CDT (10/19)
Length of Visible Light 11h 41m
Length of Day
10h 38m
Waxing Gibbous, 99% of the Moon is Illuminated
Oct 19
Waxing Gibbous
Oct 26
Last Quarter
Nov 3
New
Nov 9
First Quarter
Nov 17
Full

Hourly Weather History & Observations

Time (CDT) Temp. Windchill Dew Point Humidity Pressure Visibility Wind Dir Wind Speed Gust Speed Precip Events Conditions
12:14 AM 32.0 °F 28.7 °F 32.0 °F 100% 29.74 in 10.0 mi SW 3.5 mph - N/A   Clear
12:35 AM 32.0 °F 27.5 °F 30.2 °F 93% 29.73 in 7.0 mi SW 4.6 mph - N/A   Clear
12:55 AM 32.0 °F 28.7 °F 30.2 °F 93% 29.73 in 10.0 mi WSW 3.5 mph - N/A   Clear
1:14 AM 32.0 °F 28.7 °F 32.0 °F 100% 29.72 in 10.0 mi WSW 3.5 mph - N/A   Clear
1:35 AM 30.2 °F 26.7 °F 30.2 °F 100% 29.72 in 10.0 mi South 3.5 mph - N/A   Clear
1:54 AM 32.0 °F 28.7 °F 32.0 °F 100% 29.72 in 10.0 mi SW 3.5 mph - N/A   Clear
2:15 AM 32.0 °F - 32.0 °F 100% 29.71 in 10.0 mi Calm Calm - N/A   Mostly Cloudy
2:34 AM 33.8 °F 30.8 °F 33.8 °F 100% 29.71 in 10.0 mi SW 3.5 mph - N/A   Overcast
2:54 AM 33.8 °F 29.6 °F 33.8 °F 100% 29.71 in 7.0 mi WSW 4.6 mph - N/A   Unknown
3:15 AM 35.6 °F 29.2 °F 35.6 °F 100% 29.71 in 10.0 mi West 8.1 mph - N/A   Overcast
3:34 AM 35.6 °F 29.9 °F 35.6 °F 100% 29.70 in 10.0 mi West 6.9 mph - N/A   Overcast
3:55 AM 35.6 °F 31.7 °F 35.6 °F 100% 29.70 in 10.0 mi West 4.6 mph - N/A   Overcast
4:14 AM 35.6 °F 31.7 °F 35.6 °F 100% 29.69 in 10.0 mi West 4.6 mph - N/A   Overcast
4:35 AM 35.6 °F 29.2 °F 35.6 °F 100% 29.70 in 10.0 mi NW 8.1 mph - N/A   Overcast
4:54 AM 35.6 °F 27.1 °F 35.6 °F 100% 29.70 in 10.0 mi NNW 12.7 mph 16.1 mph N/A   Overcast
5:14 AM 35.6 °F 28.6 °F 33.8 °F 93% 29.70 in 10.0 mi NNW 9.2 mph - N/A   Overcast
5:35 AM 35.6 °F 28.0 °F 33.8 °F 93% 29.70 in 10.0 mi NNW 10.4 mph - N/A   Overcast
5:54 AM 33.8 °F 26.4 °F 32.0 °F 93% 29.70 in 10.0 mi NNW 9.2 mph - N/A   Scattered Clouds
6:15 AM 32.0 °F 24.2 °F 30.2 °F 93% 29.71 in 10.0 mi NNW 9.2 mph - N/A   Scattered Clouds
6:34 AM 33.8 °F 26.4 °F 30.2 °F 87% 29.71 in 10.0 mi NNW 9.2 mph - N/A   Scattered Clouds
6:55 AM 33.8 °F 25.8 °F 30.2 °F 87% 29.71 in 10.0 mi NW 10.4 mph - N/A   Overcast
7:15 AM 33.8 °F 26.4 °F 32.0 °F 93% 29.72 in 10.0 mi NW 9.2 mph - N/A   Overcast
7:34 AM 33.8 °F 27.0 °F 32.0 °F 93% 29.72 in 10.0 mi NNW 8.1 mph - N/A   Overcast
7:55 AM 33.8 °F 27.0 °F 32.0 °F 93% 29.72 in 10.0 mi NW 8.1 mph - N/A   Overcast
8:54 AM 33.8 °F 25.3 °F 33.8 °F 100% 29.74 in 7.0 mi NW 11.5 mph - N/A   Overcast
9:14 AM 35.6 °F 29.2 °F 33.8 °F 93% 29.74 in 2.5 mi NNW 8.1 mph - N/A   Overcast
9:35 AM 35.6 °F 28.6 °F 33.8 °F 93% 29.74 in 1.8 mi NNW 9.2 mph - N/A   Overcast
9:54 AM 35.6 °F 29.2 °F 33.8 °F 93% 29.74 in 3.0 mi NNW 8.1 mph - N/A   Overcast
10:15 AM 35.6 °F 28.0 °F 33.8 °F 93% 29.74 in 4.0 mi NNW 10.4 mph - N/A   Overcast
10:34 AM 35.6 °F 27.5 °F 33.8 °F 93% 29.75 in 2.5 mi NNW 11.5 mph - N/A   Overcast
10:55 AM 35.6 °F 28.0 °F 33.8 °F 93% 29.75 in 2.5 mi NNW 10.4 mph 17.3 mph N/A   Overcast
11:14 AM 35.6 °F 27.1 °F 35.6 °F 100% 29.75 in 2.5 mi NNW 12.7 mph - N/A   Overcast
11:35 AM 35.6 °F 27.1 °F 35.6 °F 100% 29.76 in 4.0 mi NNW 12.7 mph - N/A   Overcast
11:54 AM 35.6 °F 27.5 °F 35.6 °F 100% 29.76 in 5.0 mi NNW 11.5 mph - N/A   Overcast
12:15 PM 35.6 °F 27.1 °F 35.6 °F 100% 29.76 in 7.0 mi North 12.7 mph - N/A   Overcast
12:34 PM 37.4 °F 29.3 °F 35.6 °F 93% 29.77 in 10.0 mi NNW 12.7 mph - N/A   Overcast
12:54 PM 37.4 °F 28.9 °F 35.6 °F 93% 29.77 in 10.0 mi NW 13.8 mph - N/A   Overcast
1:15 PM 37.4 °F 28.9 °F 35.6 °F 93% 29.77 in 7.0 mi NNW 13.8 mph - N/A   Overcast
1:34 PM 37.4 °F 29.3 °F 35.6 °F 93% 29.77 in 3.0 mi NW 12.7 mph - N/A   Overcast
1:55 PM 37.4 °F 30.3 °F 35.6 °F 93% 29.77 in 10.0 mi NNW 10.4 mph - N/A   Overcast
2:14 PM 37.4 °F 29.8 °F 37.4 °F 100% 29.77 in 10.0 mi NNW 11.5 mph - N/A   Overcast
2:35 PM 37.4 °F 30.8 °F 37.4 °F 100% 29.77 in 10.0 mi NNW 9.2 mph - N/A   Overcast
2:55 PM 37.4 °F 30.8 °F 37.4 °F 100% 29.77 in 10.0 mi NNW 9.2 mph - N/A   Overcast
3:14 PM 39.2 °F 33.0 °F 35.6 °F 87% 29.77 in 10.0 mi NNW 9.2 mph - N/A   Overcast
3:35 PM 39.2 °F 32.5 °F 35.6 °F 87% 29.77 in 10.0 mi NW 10.4 mph - N/A   Overcast
3:54 PM 39.2 °F 35.0 °F 33.8 °F 81% 29.77 in 10.0 mi NNW 5.8 mph - N/A   Overcast
4:15 PM 39.2 °F 33.0 °F 33.8 °F 81% 29.77 in 10.0 mi NW 9.2 mph - N/A   Overcast
4:34 PM 41.0 °F 35.2 °F 32.0 °F 70% 29.77 in 10.0 mi NW 9.2 mph - N/A   Overcast
4:55 PM 41.0 °F 35.8 °F 32.0 °F 70% 29.77 in 10.0 mi NW 8.1 mph - N/A   Overcast
5:14 PM 39.2 °F 33.6 °F 32.0 °F 75% 29.77 in 10.0 mi NW 8.1 mph - N/A   Overcast
5:34 PM 39.2 °F 34.2 °F 30.2 °F 70% 29.77 in 10.0 mi WNW 6.9 mph - N/A   Overcast
5:55 PM 39.2 °F 34.2 °F 33.8 °F 81% 29.77 in 10.0 mi WNW 6.9 mph - N/A   Overcast
6:14 PM 39.2 °F 35.9 °F 33.8 °F 81% 29.77 in 10.0 mi West 4.6 mph - N/A   Overcast
6:35 PM 39.2 °F 37.0 °F 33.8 °F 81% 29.77 in 10.0 mi NW 3.5 mph - N/A   Overcast
6:54 PM 39.2 °F 37.0 °F 32.0 °F 75% 29.77 in 10.0 mi North 3.5 mph - N/A   Overcast
7:15 PM 39.2 °F - 32.0 °F 75% 29.77 in 10.0 mi Calm Calm - N/A   Mostly Cloudy
7:35 PM 37.4 °F - 33.8 °F 87% 29.77 in 10.0 mi Calm Calm - N/A   Scattered Clouds
7:54 PM 33.8 °F 29.6 °F 30.2 °F 87% 29.77 in 10.0 mi SW 4.6 mph - N/A   Clear
8:15 PM 35.6 °F 30.7 °F 32.0 °F 87% 29.77 in 10.0 mi SW 5.8 mph - N/A   Mostly Cloudy
8:34 PM 33.8 °F 29.6 °F 32.0 °F 93% 29.76 in 10.0 mi SSW 4.6 mph - N/A   Unknown
8:55 PM 33.8 °F 30.8 °F 32.0 °F 93% 29.76 in 10.0 mi South 3.5 mph - N/A   Unknown
9:14 PM 33.8 °F 30.8 °F 30.2 °F 87% 29.75 in 10.0 mi South 3.5 mph - N/A   Unknown
9:35 PM 33.8 °F 29.6 °F 30.2 °F 87% 29.75 in 10.0 mi South 4.6 mph - N/A   Clear
9:55 PM 33.8 °F 29.6 °F 30.2 °F 87% 29.75 in 10.0 mi South 4.6 mph - N/A   Clear
10:14 PM 33.8 °F 28.6 °F 32.0 °F 93% 29.74 in 10.0 mi South 5.8 mph - N/A   Clear
10:35 PM 33.8 °F 29.6 °F 32.0 °F 93% 29.74 in 10.0 mi South 4.6 mph - N/A   Clear
10:54 PM 33.8 °F 29.6 °F 32.0 °F 93% 29.74 in 10.0 mi South 4.6 mph - N/A   Clear
11:15 PM 35.6 °F 31.7 °F 33.8 °F 93% 29.73 in 10.0 mi South 4.6 mph - N/A   Clear
11:34 PM 35.6 °F 30.7 °F 33.8 °F 93% 29.73 in 10.0 mi South 5.8 mph - N/A   Clear
11:55 PM 35.6 °F 29.9 °F 33.8 °F 93% 29.72 in 10.0 mi South 6.9 mph - N/A   Scattered Clouds